Regional Weather Roundup
Issued by NWS

Home | Current Version | Previous Version | Text Only | Print | Product List | Glossary On
Versions: 1 2 3 4 5 6 7 8 9 10 11 12 13 14 15 16 17 18 19 20 21 22 23 24 25 26 27 28 29 30 31 32 33 34 35 36 37 38 39 40 41 42 43 44 45 46 47 48 49 50
000
ASUS44 KLIX 131110
RWRLA
LOUISIANA WEATHER ROUNDUP
NATIONAL WEATHER SERVICE NEW ORLEANS LA
500 AM CST SAT FEB 13 2016

NOTE: "FAIR" INDICATES FEW OR NO CLOUDS BELOW 12,000 FEET WITH NO
      SIGNIFICANT WEATHER AND/OR OBSTRUCTIONS TO VISIBILITY.
      SKY/WX - SKY CONDITION AND SIGNIFICANT WEATHER.
      TMP - AIR TEMPERATURE.    DP   - DEWPOINT TEMPERATURE.
      RH  - RELATIVE HUMIDITY.  PRES - PRESSURE.
      HX  - HEAT INDEX.         WCI  - WIND CHILL INDEX.

*  THESE STATIONS ARE NOT NWS OR FAA STATIONS AND ARE NOT UNDER
   NWS QUALITY CONTROL.

LAZ040-048-061>063-065-066-069-131200-
SOUTHEAST LOUISIANA

CITY           SKY/WX    TMP DP  RH WIND       PRES   REMARKS
N.O. AUDUBON     N/A     54  33  45 MISG        N/A
N.O. INTL ARPT PTCLDY    52  33  48 NE9       30.34R
N.O. LAKEFRONT PTCLDY    52  35  52 NE15      30.34R
N.O. DOWNTOWN* NOT AVBL
RESERVE*       FAIR      52  32  46 NE5       30.35R
SLIDELL        PTCLDY    48  33  56 N10       30.33R
BATON ROUGE    CLEAR     48  32  53 NE6       30.35R
BOOTHVILLE     PTCLDY    54  43  66 NE10      30.32R
BELLE CHASSE   PTCLDY    51  33  50 NE7       30.33R
BOGALUSA*        N/A     44  34  68 N5        30.39R
GALLIANO*      CLOUDY    56  39  53 NE7       30.32R
NEW ROADS*     FAIR      47  33  57 NE6       30.37R
GONZALES*      FAIR      50  33  52 N3        30.34R
HAMMOND*       CLEAR     46  32  57 N7        30.35R
HOUMA*         PTCLDY    50  40  67 N8        30.33R
PORT FOURCHON* CLOUDY    57  39  51 NE13G22   30.33R

$$

LAZ041-044-053-054-131200-
SOUTHWEST LOUISIANA

CITY           SKY/WX    TMP DP  RH WIND       PRES   REMARKS
LAKE CHARLES   CLOUDY    54  46  74 NE9       30.33R
LAFAYETTE      CLEAR     52  37  56 NE5       30.35R
PATTERSON      PTCLDY    52  37  58 NE10      30.35R
SALT POINT       N/A     54  47  77 CALM      30.32R
NEW IBERIA     PTCLDY    53  37  54 NE8       30.35R
CHENAULT AIRPK NOT AVBL

$$

LAZ027-028-131200-
CENTRAL LOUISIANA

CITY           SKY/WX    TMP DP  RH WIND       PRES   REMARKS
FORT POLK      CLEAR     47  36  64 NE9       30.36R
ALEXANDRIA INT CLEAR     47  33  58 NE5       30.37R
ALEXANDRIA     CLEAR     48  34  58 NE5       30.38R

$$

LAZ001-002-131200-
NORTHWEST LOUISIANA

CITY           SKY/WX    TMP DP  RH WIND       PRES   REMARKS
SHREVEPORT     CLEAR     46  31  55 E9        30.39S
BARKSDALE AFB  CLEAR     44  30  56 E7        30.40R
DTN SHREVEPORT CLEAR     44  31  60 E5        30.40S

$$

LAZ014-016-131200-
NORTHEAST LOUISIANA

CITY           SKY/WX    TMP DP  RH WIND       PRES   REMARKS
MONROE         CLEAR     40  32  73 NE8       30.43R WCI  34
TALLULAH       CLEAR     43  31  62 NE9       30.42R

$$




USA.gov is the U.S. government's official web portal to all federal, state and local government web resources and services.